TimeCDT,TemperatureF,Dew PointF,Humidity,Sea Level PressureIn,VisibilityMPH,Wind Direction,Wind SpeedMPH,Gust SpeedMPH,PrecipitationIn,Events,Conditions,WindDirDegrees,DateUTC
12:53 AM,62.1,52.0,70,29.97,10.0,North,4.6,-,N/A,,Clear,350,2012-10-16 05:53:00
1:53 AM,60.1,50.0,69,29.96,10.0,North,4.6,-,N/A,,Clear,360,2012-10-16 06:53:00
2:53 AM,60.1,50.0,69,29.96,10.0,North,5.8,-,N/A,,Clear,360,2012-10-16 07:53:00
3:53 AM,59.0,48.0,67,29.95,10.0,North,4.6,-,N/A,,Clear,10,2012-10-16 08:53:00
4:53 AM,55.9,48.0,75,29.97,10.0,North,4.6,-,N/A,,Clear,360,2012-10-16 09:53:00
5:53 AM,53.1,48.0,83,29.97,10.0,Calm,Calm,-,N/A,,Clear,0,2012-10-16 10:53:00
6:53 AM,48.0,45.0,89,29.98,10.0,Calm,Calm,-,N/A,,Clear,0,2012-10-16 11:53:00
7:53 AM,54.0,50.0,86,30.00,10.0,Calm,Calm,-,N/A,,Clear,0,2012-10-16 12:53:00
8:53 AM,62.1,50.0,65,30.00,10.0,East,3.5,-,N/A,,Clear,90,2012-10-16 13:53:00
9:53 AM,69.1,51.1,53,30.01,10.0,East,5.8,-,N/A,,Clear,100,2012-10-16 14:53:00
10:53 AM,73.9,48.0,40,30.00,10.0,Variable,5.8,-,N/A,,Clear,0,2012-10-16 15:53:00
11:53 AM,75.9,46.9,36,29.98,10.0,Variable,6.9,16.1,N/A,,Clear,0,2012-10-16 16:53:00
12:53 PM,78.1,48.0,35,29.95,10.0,ENE,4.6,-,N/A,,Clear,70,2012-10-16 17:53:00
1:53 PM,79.0,43.0,28,29.94,10.0,Variable,5.8,-,N/A,,Clear,0,2012-10-16 18:53:00
2:53 PM,78.1,42.1,28,29.92,10.0,NNE,8.1,-,N/A,,Clear,30,2012-10-16 19:53:00
3:53 PM,77.0,42.1,29,29.90,10.0,North,5.8,-,N/A,,Clear,10,2012-10-16 20:53:00
4:53 PM,73.0,46.0,38,29.89,10.0,Calm,Calm,-,N/A,,Clear,0,2012-10-16 21:53:00
5:53 PM,66.9,55.0,66,29.89,4.0,Calm,Calm,-,N/A,,Haze,0,2012-10-16 22:53:00
6:53 PM,63.0,54.0,72,29.89,10.0,Calm,Calm,-,N/A,,Clear,0,2012-10-16 23:53:00
7:53 PM,61.0,54.0,78,29.89,10.0,Calm,Calm,-,N/A,,Clear,0,2012-10-17 00:53:00
8:53 PM,59.0,54.0,83,29.91,10.0,Calm,Calm,-,N/A,,Clear,0,2012-10-17 01:53:00
9:53 PM,59.0,54.0,83,29.91,10.0,Calm,Calm,-,N/A,,Clear,0,2012-10-17 02:53:00
10:53 PM,57.9,54.0,87,29.92,10.0,Calm,Calm,-,N/A,,Clear,0,2012-10-17 03:53:00
11:53 PM,57.9,54.0,87,29.91,10.0,Calm,Calm,-,N/A,,Clear,0,2012-10-17 04:53:00